Location: Terra Rouge Observatory
(46.0000°N, 62.7500°W)
Time: 03:50:12
(UTC-03:00)

Amateur Radio Satellites - All Passes

Search period start: 29 August 2015 03:20
Search period end: 30 August 2015 03:20
Location: Terra Rouge Observatory, 46.0000°N, 62.7500°W

Satellite Date Start Highest point End Downlink Frequencies (MHz)
Time Altitude Azimuth
AO-7 29 Aug 03:33:08 03:37:26 15° 84° (E) 03:42:14 29.400- 29.500
Oscar 19 29 Aug 03:34:34 03:39:30 43° 292° (WNW) 03:44:22 437.125/150
GONETS M04 29 Aug 03:41:30 03:50:05 71° 94° (E) 03:58:47
SO-50 29 Aug 03:41:56 03:46:34 43° 315° (NW) 03:51:19 436.795
ITUPSAT 1 29 Aug 03:45:40 03:47:47 12° 274° (W) 03:49:38 437.325
Gurwin Techsat 1B 29 Aug 03:48:24 03:53:46 87° 104° (ESE) 03:59:06 435.225
O/OREOS (USA 219) 29 Aug 03:57:36 03:58:26 10° 40° (NE) 03:59:27 437.305
RS-15 29 Aug 04:01:33 04:11:50 35° 253° (WSW) 04:22:03 29.354- 29.394
JAS-2 29 Aug 04:04:53 04:12:08 62° 99° (E) 04:18:32 435.910
HORYU 2 29 Aug 04:09:15 04:11:54 16° 89° (E) 04:14:43 437.375
PCSat 29 Aug 04:11:39 04:16:55 50° 309° (NW) 04:22:14 145.827
ITAMSAT 1 29 Aug 04:25:56 04:30:59 55° 290° (WNW) 04:36:02 435.822/435.867
MOZHAYETS 4 29 Aug 04:33:08 04:37:44 70° 74° (ENE) 04:42:21
STARS 29 Aug 04:35:18 04:39:08 28° 265° (W) 04:42:57 437.465
CUBESAT XI-V 29 Aug 04:45:15 04:45:48 10° 58° (ENE) 04:46:37 437.345
KKS-1 29 Aug 04:47:23 04:49:52 14° 272° (W) 04:52:10 437.445
Cosmos 2499 29 Aug 04:52:31 05:00:37 56° 91° (E) 05:09:13 435.465 / 435.565
AO-7 29 Aug 05:23:33 05:31:54 74° 106° (ESE) 05:40:11 29.400- 29.500
SO-50 29 Aug 05:25:57 05:28:26 13° 338° (NNW) 05:30:49 436.795
Gurwin Techsat 1B 29 Aug 05:29:56 05:33:07 16° 302° (WNW) 05:36:06 435.225
O/OREOS (USA 219) 29 Aug 05:34:22 05:38:57 61° 62° (ENE) 05:43:29 437.305
GONETS M04 29 Aug 05:40:29 05:47:52 29° 298° (WNW) 05:55:07
HORYU 2 29 Aug 05:44:34 05:48:59 58° 288° (WNW) 05:53:20 437.375
JAS-2 29 Aug 05:50:28 05:56:42 30° 301° (WNW) 06:02:17 435.910
PCSat 29 Aug 05:58:52 06:01:44 14° 332° (NNW) 06:04:28 145.827
VERMONT LUNAR 29 Aug 06:00:56 06:02:59 17° 162° (SSE) 06:05:03 437.305
MOZHAYETS 4 29 Aug 06:13:02 06:15:31 14° 273° (W) 06:17:47
CUBESAT XI-V 29 Aug 06:17:56 06:22:31 76° 75° (ENE) 06:27:08 437.345
CUTE-I 29 Aug 06:26:47 06:30:20 18° 89° (E) 06:34:03 437.470
STRAND 1 29 Aug 06:28:07 06:32:34 32° 66° (ENE) 06:37:06 437.568
PRISM 29 Aug 06:32:46 06:35:51 21° 65° (ENE) 06:39:00 437.425
Cosmos 2499 29 Aug 06:46:25 06:54:14 38° 293° (WNW) 07:02:17 435.465 / 435.565
YUBILEINY 29 Aug 07:06:27 07:12:12 19° 54° (NE) 07:18:18 435.215
O/OREOS (USA 219) 29 Aug 07:15:02 07:17:56 16° 259° (W) 07:20:39 437.305
AO-7 29 Aug 07:17:05 07:24:06 31° 306° (NW) 07:30:56 29.400- 29.500
Cubesat XI-IV 29 Aug 07:19:41 07:24:53 52° 100° (E) 07:30:05 437.490
PHONESAT 2.4 29 Aug 07:21:17 07:22:32 12° 154° (SSE) 07:23:52 2401.200-2431.200
VERMONT LUNAR 29 Aug 07:36:20 07:38:57 28° 179° (S) 07:41:35 437.305
CUBESAT XI-V 29 Aug 07:58:29 08:00:36 13° 274° (W) 08:02:28 437.345
Cosmos 2491 29 Aug 08:00:13 08:04:06 14° 74° (ENE) 08:08:33 435.465 / 435.565
CUTE-I 29 Aug 08:05:40 08:10:57 66° 288° (WNW) 08:16:14 437.470
AIST 1 29 Aug 08:05:55 08:08:45 18° 87° (E) 08:11:42
STRAND 1 29 Aug 08:07:02 08:11:44 36° 263° (W) 08:16:25 437.568
PRISM 29 Aug 08:07:14 08:11:05 38° 262° (W) 08:14:55 437.425
HO-68 29 Aug 08:07:19 08:10:03 13° 82° (E) 08:13:17 435.675
BRITE-PL 29 Aug 08:17:22 08:22:25 40° 96° (E) 08:27:43 437.365/2234.400
CANX-2 29 Aug 08:36:30 08:38:36 14° 88° (E) 08:40:53 2200.000
M-CUBED/EXP-1 PRIME 29 Aug 08:48:41 08:50:25 12° 52° (NE) 08:52:22 437.505
SO-50 29 Aug 08:50:53 08:53:52 16° 26° (NNE) 08:56:55 436.795
PHONESAT 2.4 29 Aug 08:56:52 08:59:48 27° 170° (S) 09:02:45 2401.200-2431.200
Cubesat XI-IV 29 Aug 09:00:25 09:04:43 25° 298° (WNW) 09:08:54 437.490
YUBILEINY 29 Aug 09:01:58 09:10:52 78° 79° (E) 09:19:42 435.215
GOMX 1 29 Aug 09:02:10 09:07:30 60° 99° (E) 09:12:57 467.674
SEEDS 29 Aug 09:02:57 09:05:53 19° 91° (E) 09:08:55 437.485
CINEMA 3 29 Aug 09:03:02 09:06:22 18° 88° (E) 09:09:50 145.822/145.860
VERMONT LUNAR 29 Aug 09:12:42 09:14:58 20° 195° (SSW) 09:17:14 437.305
COMPASS 1 29 Aug 09:29:36 09:33:10 28° 94° (E) 09:36:46 437.405
UWE-3 29 Aug 09:29:43 09:30:26 10° 84° (E) 09:31:27 435.000/436.395/437.385
DOVE 4 29 Aug 09:30:56 09:36:13 69° 100° (E) 09:41:32 437.250
PCSat 29 Aug 09:31:44 09:33:54 12° 25° (NNE) 09:36:12 145.827
ISS 29 Aug 09:38:46 09:39:47 11° 133° (SE) 09:40:53 145.825
UNISAT 6 29 Aug 09:39:05 09:42:24 20° 63° (ENE) 09:45:51 437.425
AIST 1 29 Aug 09:42:02 09:46:06 42° 284° (WNW) 09:50:10
AAUSAT CUBESAT 2 29 Aug 09:42:27 09:46:11 32° 96° (E) 09:49:55 437.432
CUTE-I 29 Aug 09:48:30 09:50:09 11° 306° (NW) 09:51:33 437.470
Cosmos 2491 29 Aug 09:50:53 09:59:29 70° 94° (E) 10:08:10 435.465 / 435.565
HO-68 29 Aug 09:52:05 09:59:18 70° 103° (ESE) 10:06:29 435.675
BRITE-PL 29 Aug 09:56:03 10:00:51 34° 292° (WNW) 10:05:48 437.365/2234.400
CUSAT 1 29 Aug 09:56:45 10:01:26 18° 58° (ENE) 10:06:51 437.405
CUTE 1.7 + AOD 2 29 Aug 09:57:12 10:01:29 88° 103° (ESE) 10:05:41 437.475
DANDE 29 Aug 10:03:00 10:06:19 14° 56° (NE) 10:10:20 436.750
TIGRISAT 29 Aug 10:07:52 10:12:03 34° 68° (ENE) 10:16:20 435.000
QB50P2 29 Aug 10:08:50 10:11:01 14° 61° (ENE) 10:13:22 145.880/145.840
CANX-2 29 Aug 10:10:48 10:15:00 60° 286° (WNW) 10:19:08 2200.000
NANOSAT C BR1 29 Aug 10:12:13 10:14:28 15° 62° (ENE) 10:16:53 145.865
AUBIESAT-1 29 Aug 10:17:31 10:22:11 59° 67° (ENE) 10:26:48 437.475
M-CUBED/EXP-1 PRIME 29 Aug 10:19:40 10:24:28 72° 69° (ENE) 10:29:13 437.505
ANTELSAT 29 Aug 10:23:17 10:27:47 49° 71° (ENE) 10:32:22 437.575/2403.000
QB50P1 29 Aug 10:23:47 10:26:43 19° 64° (ENE) 10:29:48 145.935-145.965
Cosmos 2504 29 Aug 10:25:16 10:33:14 41° 69° (ENE) 10:40:56 435.465 / 435.565
Oscar 11 29 Aug 10:26:48 10:30:57 43° 98° (E) 10:35:04 145.826/435.025
DELFI C3 29 Aug 10:28:18 10:31:47 29° 95° (E) 10:35:18 145.870
SO-50 29 Aug 10:30:35 10:35:30 57° 49° (NE) 10:40:19 436.795
PHONESAT 2.4 29 Aug 10:34:13 10:37:16 30° 186° (S) 10:40:18 2401.200-2431.200
SEEDS 29 Aug 10:37:55 10:41:54 42° 289° (WNW) 10:45:51 437.485
HUMSAT D 29 Aug 10:38:25 10:40:58 16° 89° (E) 10:43:38 437.325/437.525
CINEMA 3 29 Aug 10:39:02 10:44:02 62° 287° (WNW) 10:48:55 145.822/145.860
GOMX 1 29 Aug 10:41:04 10:45:15 23° 296° (WNW) 10:49:24 467.674
CUBEBUG 2 29 Aug 10:49:42 10:54:30 85° 103° (ESE) 10:59:08 437.445
YUBILEINY 29 Aug 11:00:00 11:06:53 25° 280° (W) 11:13:26 435.215
ZACube-1 29 Aug 11:03:03 11:07:37 71° 101° (E) 11:12:03 437.345
UWE-3 29 Aug 11:03:05 11:07:46 90° 296° (WNW) 11:12:19 435.000/436.395/437.385
COMPASS 1 29 Aug 11:05:12 11:08:49 28° 292° (WNW) 11:12:21 437.405
DOVE 4 29 Aug 11:09:41 11:13:29 20° 298° (WNW) 11:17:10 437.250
FUNcube-1 29 Aug 11:09:51 11:14:26 80° 102° (ESE) 11:18:52 145.935
ISS 29 Aug 11:12:28 11:15:41 72° 151° (SSE) 11:18:56 145.825
PCSat 29 Aug 11:13:44 11:18:53 42° 48° (NE) 11:24:02 145.827
UNISAT 6 29 Aug 11:14:12 11:18:48 55° 261° (W) 11:23:27 437.425
AAUSAT CUBESAT 2 29 Aug 11:18:15 11:21:40 25° 293° (WNW) 11:25:00 437.432
POLYITAN 1 29 Aug 11:22:08 11:26:23 73° 75° (ENE) 11:30:41 437.675
POPSAT HIP 1 29 Aug 11:25:57 11:30:12 79° 75° (ENE) 11:34:30 437.405
50 SAT 29 Aug 11:28:35 11:31:35 21° 93° (E) 11:34:38 437.505
DUCHIFAT 1 29 Aug 11:29:09 11:33:23 82° 74° (ENE) 11:37:40 145.980
CUTE 1.7 + AOD 2 29 Aug 11:35:28 11:36:46 11° 300° (WNW) 11:37:51 437.475
ESTCUBE 1 29 Aug 11:36:23 11:39:29 19° 90° (E) 11:42:42 437.505/2401.250
CUSAT 1 29 Aug 11:37:46 11:45:09 73° 77° (ENE) 11:53:25 437.405
HO-68 29 Aug 11:40:35 11:46:32 28° 303° (WNW) 11:52:20 435.675
QB50P2 29 Aug 11:42:11 11:46:25 68° 258° (WSW) 11:50:42 145.880/145.840
DANDE 29 Aug 11:43:48 11:50:45 60° 75° (ENE) 11:59:01 436.750
TIGRISAT 29 Aug 11:44:42 11:48:49 29° 266° (W) 11:52:56 435.000
NANOSAT C BR1 29 Aug 11:45:37 11:49:49 65° 259° (WSW) 11:54:05 145.865
DX 1 29 Aug 11:49:48 11:54:04 49° 100° (E) 11:58:20 434.975-435.025
Cosmos 2491 29 Aug 11:49:48 11:57:16 29° 297° (WNW) 12:04:31 435.465 / 435.565
BUGSAT 1 29 Aug 11:50:02 11:54:06 87° 76° (ENE) 11:58:15 437.445
AUBIESAT-1 29 Aug 11:53:49 11:57:12 19° 264° (W) 12:00:26 437.475
M-CUBED/EXP-1 PRIME 29 Aug 11:56:43 11:59:42 16° 266° (W) 12:02:30 437.505
QB50P1 29 Aug 11:58:10 12:02:16 47° 261° (W) 12:06:25 145.935-145.965
AISAT 29 Aug 11:59:52 12:04:08 42° 98° (E) 12:08:24 437.250
ANTELSAT 29 Aug 12:01:18 12:04:51 21° 270° (W) 12:08:19 437.575/2403.000
DELFI C3 29 Aug 12:03:26 12:06:47 25° 293° (WNW) 12:10:03 145.870
Oscar 11 29 Aug 12:03:36 12:06:52 21° 295° (WNW) 12:10:01 145.826/435.025
UKube-1 29 Aug 12:07:06 12:11:26 67° 102° (ESE) 12:15:45 .
CUBEBUG 1 29 Aug 12:09:48 12:13:47 32° 96° (E) 12:17:47 437.445
SO-50 29 Aug 12:11:49 12:15:42 23° 247° (WSW) 12:19:25 436.795
PHONESAT 2.4 29 Aug 12:12:27 12:14:36 16° 202° (SSW) 12:16:43 2401.200-2431.200
HUMSAT D 29 Aug 12:12:53 12:17:05 53° 287° (WNW) 12:21:10 437.325/437.525
Cosmos 2504 29 Aug 12:17:30 12:25:42 50° 271° (W) 12:33:26 435.465 / 435.565
SPROUT 29 Aug 12:18:15 12:20:14 13° 87° (E) 12:22:27 437.525
CUBEBUG 2 29 Aug 12:28:06 12:30:31 14° 301° (WNW) 12:32:45 437.445
VELOX 1 29 Aug 12:28:51 12:33:20 80° 101° (ESE) 12:37:49 145.980
JAS-2 29 Aug 12:40:29 12:41:43 11° 43° (NE) 12:43:22 435.910
ZACube-1 29 Aug 12:40:46 12:43:26 15° 299° (WNW) 12:45:54 437.345
UWE-3 29 Aug 12:41:35 12:43:37 12° 301° (WNW) 12:45:25 435.000/436.395/437.385
FUNcube-1 29 Aug 12:47:52 12:50:08 13° 300° (WNW) 12:52:13 145.935
ISS 29 Aug 12:49:16 12:52:17 34° 348° (NNW) 12:55:18 145.825
PCSat 29 Aug 12:57:20 13:02:15 35° 248° (WSW) 13:07:05 145.827
POLYITAN 1 29 Aug 13:01:15 13:02:53 12° 274° (W) 13:04:16 437.675
50 SAT 29 Aug 13:02:41 13:06:11 32° 291° (WNW) 13:09:37 437.505
POPSAT HIP 1 29 Aug 13:05:36 13:06:43 11° 274° (W) 13:07:36 437.405
DUCHIFAT 1 29 Aug 13:09:20 13:09:51 10° 274° (W) 13:10:08 145.980
ESTCUBE 1 29 Aug 13:12:19 13:16:41 49° 289° (WNW) 13:21:00 437.505/2401.250
Oscar 19 29 Aug 13:14:37 13:19:35 50° 70° (ENE) 13:24:38 437.125/150
CUSAT 1 29 Aug 13:21:07 13:27:19 28° 272° (W) 13:33:47 437.405
DX 1 29 Aug 13:26:49 13:30:00 20° 297° (WNW) 13:33:05 434.975-435.025
DANDE 29 Aug 13:27:21 13:33:43 34° 269° (W) 13:40:50 436.750
TISAT 1 29 Aug 13:32:15 13:36:21 44° 98° (E) 13:40:27 437.305
Gurwin Techsat 1B 29 Aug 13:33:26 13:37:45 27° 63° (ENE) 13:42:10 435.225
AISAT 29 Aug 13:36:56 13:40:29 23° 295° (WNW) 13:43:57 437.250
UKube-1 29 Aug 13:44:34 13:47:05 15° 299° (WNW) 13:49:27 .
CUBEBUG 1 29 Aug 13:46:17 13:50:04 28° 293° (WNW) 13:53:46 437.445
GONETS M04 29 Aug 13:48:41 13:56:48 41° 68° (ENE) 14:05:03
SPROUT 29 Aug 13:52:30 13:56:50 66° 287° (WNW) 14:01:09 437.525
ITUPSAT 1 29 Aug 14:03:33 14:06:38 17° 90° (E) 14:09:52 437.325
VELOX 1 29 Aug 14:07:07 14:09:20 13° 300° (WNW) 14:11:22 145.980
ITAMSAT 1 29 Aug 14:07:22 14:12:11 42° 68° (ENE) 14:17:04 435.822/435.867
JAS-2 29 Aug 14:17:51 14:24:51 41° 64° (ENE) 14:32:05 435.910
ISS 29 Aug 14:26:15 14:29:12 31° 8° (N) 14:32:10 145.825
AO-7 29 Aug 14:34:10 14:41:09 32° 54° (NE) 14:48:17 29.400- 29.500
BEESAT 29 Aug 14:37:44 14:42:08 37° 97° (E) 14:46:33 436.000
Cosmos 2499 29 Aug 14:41:22 14:48:14 25° 59° (ENE) 14:55:04 435.465 / 435.565
Oscar 19 29 Aug 14:55:08 14:59:16 23° 269° (W) 15:03:19 437.125/150
KKS-1 29 Aug 14:59:48 15:00:27 10° 85° (E) 15:01:23 437.445
SWISSCUBE 29 Aug 15:03:03 15:07:50 71° 102° (ESE) 15:12:34 437.505
TISAT 1 29 Aug 15:08:38 15:11:50 20° 296° (WNW) 15:14:56 437.305
HORYU 2 29 Aug 15:09:40 15:13:01 21° 64° (ENE) 15:16:29 437.375
Gurwin Techsat 1B 29 Aug 15:12:22 15:17:30 48° 261° (W) 15:22:39 435.225
ITUPSAT 1 29 Aug 15:40:16 15:44:58 58° 289° (WNW) 15:49:38 437.325
GONETS M04 29 Aug 15:45:31 15:53:56 51° 270° (W) 16:02:17
ITAMSAT 1 29 Aug 15:47:24 15:51:51 28° 266° (W) 15:56:15 435.822/435.867
JAS-2 29 Aug 16:02:16 16:09:42 52° 263° (W) 16:17:22 435.910
ISS 29 Aug 16:02:38 16:05:54 87° 27° (NNE) 16:09:09 145.825
BEESAT 29 Aug 16:15:48 16:19:52 28° 295° (WNW) 16:23:52 436.000
RS-15 29 Aug 16:16:12 16:25:38 37° 108° (ESE) 16:35:36 29.354- 29.394
STARS 29 Aug 16:21:43 16:25:59 43° 98° (E) 16:30:14 437.465
AO-7 29 Aug 16:25:04 16:33:25 72° 255° (WSW) 16:41:47 29.400- 29.500
BEESAT 3 29 Aug 16:26:48 16:30:51 69° 123° (ESE) 16:34:55 437.485
MOZHAYETS 4 29 Aug 16:27:22 16:29:35 14° 87° (E) 16:32:02
KKS-1 29 Aug 16:33:17 16:37:49 87° 287° (WNW) 16:42:19 437.445
Cosmos 2499 29 Aug 16:33:50 16:42:40 82° 263° (W) 16:50:56 435.465 / 435.565
BEESAT 2 29 Aug 16:34:45 16:38:49 63° 123° (ESE) 16:42:54 435.950
SWISSCUBE 29 Aug 16:42:11 16:45:11 16° 300° (WNW) 16:48:01 437.505
HORYU 2 29 Aug 16:45:03 16:49:23 46° 261° (W) 16:53:45 437.375
AIST 2 29 Aug 16:53:17 16:56:34 22° 114° (ESE) 16:59:56 435.215
Cubesat XI-IV 29 Aug 17:06:41 17:10:04 18° 59° (ENE) 17:13:36 437.490
ISS 29 Aug 17:39:53 17:41:55 15° 224° (SW) 17:43:52 145.825
CUTE-I 29 Aug 17:50:41 17:55:32 39° 67° (ENE) 18:00:28 437.470
STARS 29 Aug 17:58:42 18:02:11 22° 296° (WNW) 18:05:32 437.465
MOZHAYETS 4 29 Aug 18:02:49 18:07:23 68° 286° (WNW) 18:11:54
BEESAT 3 29 Aug 18:06:12 18:09:13 19° 323° (NW) 18:12:09 437.485
KKS-1 29 Aug 18:12:08 18:13:48 12° 302° (WNW) 18:15:16 437.445
CUBESAT XI-V 29 Aug 18:13:14 18:16:00 16° 88° (E) 18:18:57 437.345
BEESAT 2 29 Aug 18:14:06 18:17:15 20° 323° (NW) 18:20:20 435.950
AO-7 29 Aug 18:23:18 18:27:56 15° 276° (W) 18:32:01 29.400- 29.500
RS-15 29 Aug 18:26:18 18:37:18 72° 312° (NW) 18:48:48 29.354- 29.394
Cosmos 2499 29 Aug 18:28:54 18:34:32 19° 284° (WNW) 18:39:36 435.465 / 435.565
AIST 2 29 Aug 18:30:47 18:34:53 46° 312° (NW) 18:39:01 435.215
GOMX 1 29 Aug 18:39:12 18:40:12 11° 56° (NE) 18:41:27 467.674
HO-68 29 Aug 18:39:25 18:43:19 16° 49° (NE) 18:47:31 435.675
Cubesat XI-IV 29 Aug 18:44:17 18:49:37 77° 256° (WSW) 18:54:59 437.490
DOVE 4 29 Aug 19:04:43 19:06:30 12° 57° (ENE) 19:08:33 437.250
CUTE 1.7 + AOD 2 29 Aug 19:20:25 19:21:04 10° 59° (ENE) 19:21:55 437.475
CUTE-I 29 Aug 19:30:58 19:35:42 32° 265° (W) 19:40:25 437.470
BRITE-PL 29 Aug 19:31:16 19:35:27 49° 71° (ENE) 19:39:58 437.365/2234.400
CANX-2 29 Aug 19:32:03 19:34:29 15° 63° (ENE) 19:37:03 2200.000
AIST 1 29 Aug 19:46:08 19:50:24 57° 78° (ENE) 19:54:41
PRISM 29 Aug 19:47:01 19:50:16 23° 94° (E) 19:53:35 437.425
O/OREOS (USA 219) 29 Aug 19:49:06 19:53:21 43° 108° (ESE) 19:57:43 437.305
CUBESAT XI-V 29 Aug 19:49:20 19:53:55 61° 287° (WNW) 19:58:28 437.345
SEEDS 29 Aug 19:57:30 20:00:32 20° 65° (ENE) 20:03:39 437.485
Cosmos 2491 29 Aug 19:58:11 20:06:15 40° 68° (ENE) 20:14:24 435.465 / 435.565
CINEMA 3 29 Aug 20:07:07 20:10:37 22° 63° (ENE) 20:14:22 145.822/145.860
GOMX 1 29 Aug 20:13:00 20:17:27 77° 75° (ENE) 20:22:18 467.674
AIST 2 29 Aug 20:13:05 20:14:31 11° 334° (NNW) 20:15:51 435.215
YUBILEINY 29 Aug 20:13:25 20:18:31 18° 76° (ENE) 20:24:07 435.215
STRAND 1 29 Aug 20:14:22 20:19:26 63° 101° (ESE) 20:24:31 437.568
CUBEBUG 2 29 Aug 20:16:19 20:18:25 13° 59° (ENE) 20:20:44 437.445
HO-68 29 Aug 20:22:49 20:29:53 66° 69° (ENE) 20:37:01 435.675
COMPASS 1 29 Aug 20:23:07 20:26:39 27° 68° (ENE) 20:30:16 437.405
UWE-3 29 Aug 20:28:35 20:30:45 14° 60° (ENE) 20:33:08 435.000/436.395/437.385
ZACube-1 29 Aug 20:29:14 20:29:48 10° 58° (ENE) 20:30:35 437.345
Cubesat XI-IV 29 Aug 20:29:37 20:30:45 10° 276° (W) 20:31:31 437.490
FUNcube-1 29 Aug 20:34:55 20:36:19 11° 59° (ENE) 20:37:56 145.935
AAUSAT CUBESAT 2 29 Aug 20:35:27 20:39:07 31° 69° (ENE) 20:42:51 437.432
DOVE 4 29 Aug 20:38:53 20:43:27 85° 79° (ENE) 20:48:22 437.250
RS-15 29 Aug 20:42:11 20:52:08 34° 342° (NNW) 21:02:26 29.354- 29.394
CUTE 1.7 + AOD 2 29 Aug 20:52:02 20:56:19 85° 76° (ENE) 21:00:38 437.475
CANX-2 29 Aug 21:05:42 21:09:58 62° 259° (W) 21:14:14 2200.000
BRITE-PL 29 Aug 21:11:21 21:14:25 18° 272° (W) 21:17:30 437.365/2234.400
DELFI C3 29 Aug 21:17:46 21:21:07 26° 68° (ENE) 21:24:32 145.870
PRISM 29 Aug 21:22:04 21:25:47 34° 291° (WNW) 21:29:29 437.425
Oscar 11 29 Aug 21:23:44 21:27:53 46° 72° (ENE) 21:32:06 145.826/435.025
AIST 1 29 Aug 21:25:17 21:27:37 14° 275° (W) 21:29:47
O/OREOS (USA 219) 29 Aug 21:29:13 21:33:00 25° 308° (NW) 21:36:46 437.305
SEEDS 29 Aug 21:31:56 21:36:02 45° 262° (W) 21:40:08 437.485
HUMSAT D 29 Aug 21:32:37 21:35:21 17° 63° (ENE) 21:38:15 437.325/437.525
CINEMA 3 29 Aug 21:42:55 21:47:28 51° 262° (W) 21:52:14 145.822/145.860
CUBEBUG 2 29 Aug 21:49:47 21:54:26 88° 256° (WSW) 21:59:12 437.445
GOMX 1 29 Aug 21:54:24 21:56:25 12° 276° (W) 21:58:14 467.674
STRAND 1 29 Aug 21:54:32 21:58:14 20° 299° (WNW) 22:01:48 437.568
Cosmos 2491 29 Aug 21:55:02 22:03:25 52° 270° (W) 22:11:44 435.465 / 435.565
VELOX 1 29 Aug 21:55:22 21:57:04 12° 59° (ENE) 21:58:57 145.980
COMPASS 1 29 Aug 21:58:31 22:02:16 30° 265° (W) 22:05:59 437.405
ZACube-1 29 Aug 22:00:51 22:05:23 74° 74° (ENE) 22:10:00 437.345
UWE-3 29 Aug 22:02:02 22:06:39 84° 257° (WSW) 22:11:22 435.000/436.395/437.385
YUBILEINY 29 Aug 22:05:19 22:14:05 81° 97° (E) 22:22:58 435.215
FUNcube-1 29 Aug 22:07:24 22:11:55 84° 78° (ENE) 22:16:34 145.935
AAUSAT CUBESAT 2 29 Aug 22:11:10 22:14:44 26° 266° (W) 22:18:16 437.432
HO-68 29 Aug 22:12:16 22:18:14 27° 269° (W) 22:24:02 435.675
50 SAT 29 Aug 22:14:40 22:17:25 19° 65° (ENE) 22:20:16 437.505
DOVE 4 29 Aug 22:20:24 22:22:06 11° 277° (W) 22:23:33 437.250
ESTCUBE 1 29 Aug 22:38:24 22:41:56 24° 65° (ENE) 22:45:34 437.505/2401.250
DX 1 29 Aug 22:47:35 22:51:50 58° 73° (ENE) 22:56:08 434.975-435.025
DELFI C3 29 Aug 22:52:30 22:56:06 29° 265° (W) 22:59:39 145.870
RS-15 29 Aug 22:58:43 23:08:47 33° 16° (NNE) 23:19:20 29.354- 29.394
Cosmos 2504 29 Aug 22:59:12 23:05:38 28° 81° (E) 23:12:34 435.465 / 435.565
AISAT 29 Aug 22:59:49 23:04:04 51° 71° (ENE) 23:08:23 437.250
Oscar 11 29 Aug 23:01:12 23:04:21 19° 269° (W) 23:07:23 145.826/435.025
UKube-1 29 Aug 23:04:00 23:08:19 78° 73° (ENE) 23:12:39 .
UNISAT 6 29 Aug 23:04:09 23:08:02 27° 93° (E) 23:11:54 437.425
BEESAT 3 29 Aug 23:06:00 23:08:33 16° 34° (NE) 23:11:08 437.485
HUMSAT D 29 Aug 23:06:27 23:10:42 56° 260° (W) 23:14:59 437.325/437.525
POLYITAN 1 29 Aug 23:07:59 23:08:29 10° 85° (E) 23:09:15 437.675
CUBEBUG 1 29 Aug 23:08:17 23:12:14 36° 69° (ENE) 23:16:15 437.445
POPSAT HIP 1 29 Aug 23:11:02 23:12:06 11° 86° (E) 23:13:26 437.405
DUCHIFAT 1 29 Aug 23:13:35 23:14:48 11° 86° (E) 23:16:15 145.980
BEESAT 2 29 Aug 23:14:28 23:16:55 15° 33° (NNE) 23:19:28 435.950
SPROUT 29 Aug 23:14:58 23:17:23 15° 62° (ENE) 23:19:57 437.525
QB50P2 29 Aug 23:25:59 23:28:44 17° 90° (E) 23:31:36 145.880/145.840
VELOX 1 29 Aug 23:28:36 23:33:00 85° 254° (WSW) 23:37:28 145.980
NANOSAT C BR1 29 Aug 23:28:54 23:31:41 17° 90° (E) 23:34:36 145.865
CUBEBUG 2 29 Aug 23:30:57 23:31:57 10° 277° (W) 23:32:39 437.445
AUBIESAT-1 29 Aug 23:31:10 23:34:35 26° 99° (E) 23:37:49 437.475
BUGSAT 1 29 Aug 23:31:55 23:33:04 11° 87° (E) 23:34:28 437.445
TIGRISAT 29 Aug 23:33:20 23:37:51 50° 99° (E) 23:42:15 435.000
M-CUBED/EXP-1 PRIME 29 Aug 23:33:54 23:37:40 34° 101° (E) 23:41:10 437.505
ZACube-1 29 Aug 23:40:08 23:42:21 13° 274° (W) 23:44:20 437.345
QB50P1 29 Aug 23:41:04 23:44:30 23° 93° (E) 23:47:59 145.935-145.965
FUNcube-1 29 Aug 23:47:24 23:48:58 11° 275° (W) 23:50:17 145.935
50 SAT 29 Aug 23:47:54 23:51:40 41° 262° (W) 23:55:27 437.505
ANTELSAT 29 Aug 23:49:21 23:54:00 76° 102° (ESE) 23:58:30 437.575/2403.000
YUBILEINY 30 Aug 00:05:01 00:12:09 26° 300° (WNW) 00:19:04 435.215
ESTCUBE 1 30 Aug 00:14:24 00:18:38 39° 263° (W) 00:22:51 437.505/2401.250
DX 1 30 Aug 00:25:56 00:28:31 15° 271° (W) 00:30:57 434.975-435.025
TISAT 1 30 Aug 00:26:31 00:30:31 45° 71° (ENE) 00:34:35 437.305
SWISSCUBE 30 Aug 00:36:49 00:39:24 15° 60° (ENE) 00:42:10 437.505
AISAT 30 Aug 00:37:58 00:41:00 18° 270° (W) 00:43:54 437.250
UNISAT 6 30 Aug 00:40:39 00:44:53 35° 292° (WNW) 00:48:59 437.425
POLYITAN 1 30 Aug 00:40:43 00:45:04 83° 285° (WNW) 00:49:22 437.675
BEESAT 3 30 Aug 00:42:59 00:47:04 88° 236° (WSW) 00:51:03 437.485
UKube-1 30 Aug 00:43:45 00:45:05 11° 273° (W) 00:46:10 .
POPSAT HIP 1 30 Aug 00:44:17 00:48:37 78° 284° (WNW) 00:52:54 437.405
CUBEBUG 1 30 Aug 00:45:13 00:48:43 23° 267° (W) 00:52:10 437.445
DUCHIFAT 1 30 Aug 00:46:55 00:51:13 76° 285° (WNW) 00:55:28 145.980
CUSAT 1 30 Aug 00:48:20 00:52:02 55° 94° (E) 00:56:59 437.405
SPROUT 30 Aug 00:48:44 00:52:59 63° 259° (WSW) 00:57:18 437.525
Cosmos 2504 30 Aug 00:49:02 00:57:08 71° 282° (WNW) 01:05:44 435.465 / 435.565
BEESAT 2 30 Aug 00:51:31 00:55:37 85° 52° (NE) 00:59:39 435.950
DANDE 30 Aug 00:59:52 01:03:03 39° 92° (E) 01:07:15 436.750
QB50P2 30 Aug 01:00:45 01:04:57 50° 288° (WNW) 01:09:07 145.880/145.840
NANOSAT C BR1 30 Aug 01:03:39 01:07:50 49° 288° (WNW) 01:11:58 145.865
BUGSAT 1 30 Aug 01:04:52 01:09:07 76° 285° (WNW) 01:13:23 437.445
AUBIESAT-1 30 Aug 01:05:44 01:09:19 28° 299° (WNW) 01:12:36 437.475
M-CUBED/EXP-1 PRIME 30 Aug 01:08:55 01:12:18 24° 301° (WNW) 01:15:25 437.505
TIGRISAT 30 Aug 01:10:49 01:14:16 20° 297° (WNW) 01:17:32 435.000
AIST 2 30 Aug 01:11:47 01:15:39 34° 44° (NE) 01:19:29 435.215
RS-15 30 Aug 01:12:15 01:23:57 67° 46° (NE) 01:36:08 29.354- 29.394
ITUPSAT 1 30 Aug 01:12:31 01:16:30 28° 65° (ENE) 01:20:33 437.325
QB50P1 30 Aug 01:16:30 01:20:28 36° 291° (WNW) 01:24:23 145.935-145.965
Oscar 19 30 Aug 01:25:05 01:27:48 15° 87° (E) 01:30:44 437.125/150
ANTELSAT 30 Aug 01:27:36 01:30:11 15° 300° (WNW) 01:32:35 437.575/2403.000
BEESAT 30 Aug 01:46:26 01:51:05 56° 71° (ENE) 01:55:47 436.000
PCSat 30 Aug 01:59:15 02:03:07 21° 108° (ESE) 02:07:10 145.827
KKS-1 30 Aug 01:59:34 02:01:57 15° 61° (ENE) 02:04:31 437.445
TISAT 1 30 Aug 02:03:33 02:06:33 18° 269° (W) 02:09:26 437.305
SWISSCUBE 30 Aug 02:11:55 02:16:42 78° 257° (WSW) 02:21:30 437.505
POLYITAN 1 30 Aug 02:19:25 02:20:17 10° 301° (WNW) 02:20:55 437.675
ITAMSAT 1 30 Aug 02:19:52 02:21:22 11° 85° (E) 02:23:12 435.822/435.867
SO-50 30 Aug 02:27:00 02:31:47 70° 123° (ESE) 02:36:43 436.795
BEESAT 2 30 Aug 02:32:07 02:33:04 10° 250° (WSW) 02:33:46 435.950
CUSAT 1 30 Aug 02:32:38 02:35:26 16° 305° (NW) 02:38:32 437.405
DANDE 30 Aug 02:44:16 02:46:45 16° 303° (WNW) 02:49:32 436.750
Cosmos 2504 30 Aug 02:46:00 02:51:21 17° 307° (NW) 02:56:25 435.465 / 435.565
ITUPSAT 1 30 Aug 02:49:47 02:54:15 38° 263° (W) 02:58:43 437.325
AIST 2 30 Aug 02:50:28 02:54:10 30° 243° (WSW) 02:57:46 435.215
GONETS M04 30 Aug 02:53:10 03:01:01 42° 87° (E) 03:09:03
Oscar 19 30 Aug 03:02:38 03:07:53 79° 286° (WNW) 03:13:04 437.125/150
